Regional Weather Roundup
Issued by NWS Upton, NY

Home | Current Version | Previous Version | Text Only | Print | Product List | Glossary On
Versions: 1 2 3 4 5 6 7 8 9 10 11 12 13 14 15 16 17 18 19 20 21 22 23 24 25 26 27
000
ASUS41 KOKX 010604
RWROKX

REGIONAL WEATHER ROUNDUP
NATIONAL WEATHER SERVICE NEW YORK NY
200 AM EDT SUN MAY 01 2016

NOTE: "FAIR" INDICATES FEW OR NO CLOUDS BELOW 12,000 FEET WITH NO
SIGNIFICANT WEATHER AND/OR OBSTRUCTIONS TO VISIBILITY.

NYZ071-072-176-178-NJZ106-104-010700-
NEW YORK CITY METRO AREA


CITY           SKY/WX    TMP DP  RH WIND       PRES   REMARKS
CENTRAL PARK   PTCLDY    50  37  61 MISG      30.24F
LAGUARDIA APRT CLOUDY    51  36  56 S6        30.21F
KENNEDY INTL   CLOUDY    49  38  65 SE7       30.23F
NEWARK/LIBERTY CLOUDY    51  40  65 SE5       30.21F
BRNX BOT. GARD   N/A     48  37  66 S5        30.20F
TETERBORO      CLOUDY    50  35  56 S5        30.20F
$$

NYZ177-179-078>081-010700-
LONG ISLAND NEW YORK

CITY           SKY/WX    TMP DP  RH WIND       PRES   REMARKS
FARMINGDALE    CLOUDY    48  38  68 S5        30.22F
ISLIP          CLOUDY    48  36  63 S3        30.22F
SHIRLEY        PTCLDY    45  39  79 CALM      30.24F
RIVERHEAD        N/A     43  39  87 CALM      30.23F
WESTHAMPTON    CLOUDY    39  35  86 CALM      30.24F
EAST HAMPTON   FAIR      37  34  87 CALM      30.24F
MONTAUK POINT    N/A     40  36  86 CALM      30.25F
$$

NYZ052-065-067-010700-
HUDSON VALLEY

CITY           SKY/WX    TMP DP  RH WIND       PRES   REMARKS
WHITE PLAINS   CLOUDY    46  38  73 SE3       30.20F
NEWBURGH       NOT AVBL
MONTGOMERY     CLOUDY    49  37  63 S3        30.18F
POUGHKEEPSIE   CLOUDY    51  38  60 SE6       30.19F
ALBANY         CLOUDY    53  38  56 S6        30.18R
$$

NJZ001-105-106-008-010-013-015-019>022-104-010700-
NEW JERSEY

CITY           SKY/WX    TMP DP  RH WIND       PRES   REMARKS
NEWARK/LIBERTY CLOUDY    51  40  65 SE5       30.21F
TETERBORO      CLOUDY    50  35  56 S5        30.20F
CALDWELL       CLOUDY    51  36  56 CALM      30.21F
MORRISTOWN     CLOUDY    48  36  61 S3        30.21F
SOMERVILLE     CLOUDY    49  36  61 SE5       30.18F
SUSSEX         CLOUDY    49  42  77 CALM      30.19F
ANDOVER          N/A     49  33  54 CALM      30.19S
TRENTON        CLOUDY    48  37  65 S8        30.19F
MILLVILLE      CLOUDY    47  42  83 CALM      30.21F
ATLANTIC CITY  CLOUDY    49  43  80 SE5       30.20F
WRIGHTSTOWN    CLOUDY    45  40  82 E1        30.18F
TOMS RIVER     CLOUDY    45  37  76 SE3       30.20F
BELMAR         CLOUDY    48  41  76 SE7       30.21F
$$

PAZ047>061-062-071-010700-
EASTERN PENNSYLVANIA

CITY           SKY/WX    TMP DP  RH WIND       PRES   REMARKS
PHILADELPHIA   LGT RAIN  51  37  58 CALM      30.21F
ALLENTOWN      CLOUDY    52  38  58 S9        30.17F
SCRANTON       LGT RAIN  50  44  80 NW5       30.15S
$$

CTZ002-004>006-009-010-012-RIZ004-006-007-MAZ004-011-015-010700-
SOUTHERN NEW ENGLAND
 IN CT

CITY           SKY/WX    TMP DP  RH WIND       PRES   REMARKS
BRADLEY INTL   CLOUDY    46  33  60 S8        30.22S
HARTFORD       MOCLDY    47  36  65 CALM      30.23F
DANBURY        CLOUDY    46  37  71 CALM      30.22F
WTRBRY/OXFORD    N/A     45  36  70 CALM      30.23F
BRIDGEPORT     MOCLDY    49  37  63 S3        30.22F
MERIDEN        CLOUDY    46  36  68 CALM      30.22F
NEW HAVEN      CLOUDY    47  37  68 CALM      30.23F
CHESTER        FAIR      45  37  76 CALM      30.22F
GROTON         MOCLDY    44  42  93 CALM      30.23F
WILLIMANTIC    CLOUDY    42  36  79 CALM      30.23F

 IN RI

CITY           SKY/WX    TMP DP  RH WIND       PRES   REMARKS
PROVIDENCE     CLOUDY    42  34  73 SW3       30.24F
BLOCK ISLAND   CLOUDY    42  37  82 CALM      30.25S
WESTERLY       CLOUDY    41  36  82 CALM      30.24F

 IN MA

CITY           SKY/WX    TMP DP  RH WIND       PRES   REMARKS
BOSTON         MOCLDY    45  34  65 SW8       30.24F
WORCESTER      PTCLDY    41  30  65 SW10      30.20F
WESTFIELD      CLOUDY    45  33  63 S7        30.21F
PROVINCETOWN   CLEAR     41  36  82 S3        30.25F
NANTUCKET      CLEAR     37  34  89 N3        30.24F
$$

ANZ330-335-338-340-345-350-353-355-010700-
COASTAL MARINE OBSERVATIONS


STATION/POSITION TIME  SKY/WX   TEMP    WIND        PRES    VSBY  WAVE
                                AIR SEA DIR/SP/G                  HT/PER
                 (UTC)          (F)     (DEG/KT/KT) (MB)    (MI)  (FT/S)
NY HARB ENTRANCE 0450            49 51  150/  8/ 10 1023.9          4/ 8
20S FIRE ISLAND  0450            47 49  130/  6/  8 1024.2          5/ 8
GREAT SOUTH BAY  0500            48 57  150/  4/  6   N/A
23 SSW MONTAUK P 0550            45 47  120/  4/  6 1023.3          4/ 7
15 E BARNEGAT LI 0522               51                N/A           4/ 8
HUDSON CANYON    0450            48 48              1023.4          5/ 8
KINGS POINT      0500            49 54              1023.6
EXECUTION ROCKS  NOT AVBL
CENTRAL LI SOUND 0500            47     200/  6/  6   N/A           0
EASTERN LI SOUND 0500            47 49  200/  4/  4   N/A
ROBBINS REEF     0500            50     150/ 12/ 13 1022.9
$$


>>>>>>>>>>>>>>>>>>>>>>>>>>>> KEY <<<<<<<<<<<<<<<<<<<<<<<<<<<
>                                                          <
>     SKY/WX - SKY CONDITION/PRESENT WEATHER               <
>     TMP    - TEMPERATURE IN FAHRENHEIT                   <
>     DP     - DEWPOINT IN FAHRENHEIT                      <
>     RH     - RELATIVE HUMIDITY IN PERCENT                <
>     WIND   - DIRECTION AND SPEED IN MPH                  <
>     PRES   - MEAN SEA LEVEL PRESSURE IN INCHES OF HG     <
>     WCI    - WIND CHILL INDEX                            <
>     VSB    - VISIBILITY IN MILES                         <
>     HX     - HEAT INDEX                                  <
>     TC     - TEMPERATURE IN CELSIUS                      <
>     VRB    - VARIABLE WIND DIRECTION                     <
>                                                          <
>>>>>>>>>>>>>>>>>>>>>>>>>>>> KEY <<<<<<<<<<<<<<<<<<<<<<<<<<<






USA.gov is the U.S. government's official web portal to all federal, state and local government web resources and services.